Terminal Aerodrome Forecast
Issued by NWS King Salmon, AK

Home | Current Version | Previous Version | Text Only | Print | Product List | Glossary On
Versions: 1 2 3 4 5 6 7 8 9 10 11 12 13 14 15 16 17
000
FTAK31 PANC 230811 AAA
TAFAKN
TAF AMD
PAKN 230811Z 2308/2406 36007KT 6SM -RA BR SCT005 OVC015
     FM240300 26007KT 6SM -SHRA BR OVC015=

USA.gov is the U.S. government's official web portal to all federal, state and local government web resources and services.